Home   Weather   Rafsanjan   Past weeks

Flag for Iran Past Weather in Rafsanjan, Iran — Yesterday and Last 2 Weeks

Now
75 °F

Broken clouds.


Feels Like: 76 °F
Forecast: 53 / 80 °F
Wind: 9 mph from Southeast

Location: Kerman Airport

Current Time: Apr 26, 2017 at 8:39:46 pm

Latest Report: Apr 26, 2017 at 7:30 pm


Visibility: N/A

Pressure: 30.09 "Hg (25.28 "Hg at 1515m altitude)

Humidity: 16%

Dew Point: 27 °F

Location of RafsanjanLocation

Past Weather in Rafsanjan — Graph

°F

Rafsanjan Temperature Yesterday

Maximum temperature yesterday: 88 °F (at 2:30 pm)
Minimum temperature yesterday: 52 °F (at 5:30 am)
Average temperature yesterday: 71 °F

High & Low Weather Summary for the Past Weeks

 TemperatureHumidityPressure
High91 °F (Apr 16, 3:30 pm)51% (Apr 18, 4:30 am)30.36 "Hg (Apr 18, 4:30 am)
Low45 °F (Apr 23, 6:30 am)2% (Apr 25, 3:30 pm)29.98 "Hg (Apr 21, 4:30 pm)
Average72 °F17%30.14 "Hg
* Reported Apr 11 7:30 pm — Apr 26 7:30 pm, Rafsanjan, Weather by CustomWeather, © 2017

Note: Actual official high and low records may vary slightly from our data, if they occured in-between our weather recording intervals... More about our weather records

Advertising

Rafsanjan Weather History for the Previous 24 Hours

Scroll right to see more
 ConditionsComfort  
Time TempWeatherWind HumidityBarometerVisibility
7:30 pm
Wed, Apr 26
75 °FBroken clouds.9 mph16%30.09 "HgN/A
6:30 pm77 °FBroken clouds.12 mph13%30.07 "HgN/A
5:30 pm81 °FBroken clouds.12 mph13%30.07 "HgN/A
4:30 pm82 °FBroken clouds.12 mph13%30.07 "HgN/A
3:30 pm82 °FPartly sunny.18 mph13%30.07 "HgN/A
2:30 pm82 °FPartly sunny.14 mph12%30.09 "HgN/A
1:30 pm81 °FPartly sunny.14 mph13%30.12 "HgN/A
1:00 pm82 °FPartly sunny.12 mph13%30.12 "HgN/A
12:30 pm81 °FPartly sunny.9 mph14%30.12 "HgN/A
12:00 pm82 °FScattered clouds.7 mph14%30.12 "HgN/A
11:30 am81 °FScattered clouds.5 mph15%30.15 "HgN/A
10:30 am77 °FSunny.5 mph17%30.15 "Hg10 mi
10:00 am77 °FSunny.5 mph17%30.15 "Hg10 mi
9:30 am75 °FSunny.7 mph19%30.15 "Hg10 mi
9:00 am73 °FSunny.5 mph20%30.18 "Hg10 mi
8:30 am66 °FSunny.7 mph28%30.15 "Hg10 mi
7:30 am64 °FScattered clouds.5 mph28%30.15 "HgN/A
6:30 am55 °FPassing clouds.5 mph36%30.12 "HgN/A
5:30 am55 °FClear.5 mph36%30.12 "Hg10 mi
4:30 am57 °FClear.No wind36%30.09 "Hg10 mi
3:30 am59 °FClear.7 mph34%30.09 "Hg10 mi
2:30 am63 °FClear.7 mph30%30.09 "Hg10 mi
1:30 am64 °FClear.5 mph22%30.09 "Hg10 mi
12:30 am68 °FClear.No wind16%30.09 "Hg10 mi
11:30 pm
Tue, Apr 25
68 °FClear.7 mph10%30.09 "Hg10 mi
10:30 pm73 °FClear.7 mph7%30.09 "Hg10 mi
9:30 pm77 °FClear.9 mph6%30.07 "Hg10 mi
8:30 pm79 °FPassing clouds.9 mph7%30.07 "HgN/A
Weather by CustomWeather, © 2017

See weather overviewHow to use our weather pages